RH
40 38 45 22 20 19 18 16 16 17 31 34 23 22 17 14 19 21 17 18 20 29 37 45 46 42 38 40 36 38 26 24 25 26 23 26 41 50 62 30 34 40 52 43
32 31 21 30 29 26 24 24 24 23 32 34 24 25 18 17 18 18 17 18 21 28 32 39 45 42 43 45 44 33 27 28 26 28 40 44 44 51 55 65 46 35 40 42
28 32 35 33 36 30 27 24 20 29 33 32 35 17 20 20 21 23 23 25 25 28 31 34 36 37 41 41 41 41 35 37 37 48 56 63 62 64 68 70 90 51 36 37
27 38 40 37 38 31 43 29 34 41 43 42 32 24 13 18 18 17 21 21 22 25 26 28 30 32 35 41 41 42 40 36 40 56 71 84 92 85 82 84 86 93 78 68
44 50 49 44 35 30 38 41 46 48 60 64 39 54 15 18 18 19 19 22 22 24 25 27 30 32 38 38 42 48 68 81 67 73 81 86 92 93 90 86 85 86 94 99
43 55 40 34 41 37 44 41 43 66 71 79 34 33 14 17 13 18 19 19 22 26 29 31 33 36 38 42 53 61 78 87 94 97 98 99 92 91 95 96 92 85 90 95
45 46 46 45 47 48 48 35 70 78 85 43 33 36 15 17 16 19 21 24 26 29 31 33 36 39 44 63 73 79 80 88 92 92 95 95 88 93 96 94 96 91 94 94
58 63 52 45 42 35 40 33 61 47 38 29 36 36 23 19 22 24 24 26 28 31 32 35 38 43 52 76 80 84 88 97 99 95 81 79 82 94 92 95 94 96 88 99
36 43 52 51 44 40 44 46 38 51 35 44 26 27 22 22 25 24 25 27 30 32 35 37 41 55 64 84 86 90 94 94 98 96 98 96 92 78 88 100 100 97 93 98
29 41 46 55 48 46 44 33 49 47 65 49 24 27 30 28 26 28 26 28 30 34 36 39 56 72 80 87 91 90 91 97 97 97 94 97 98 88 97 99 98 97 96 99
35 32 47 50 51 39 49 42 42 46 50 68 40 24 23 24 29 27 26 30 32 36 37 45 67 75 85 86 96 91 91 97 98 92 85 94 90 92 93 97 98 96 99 100
44 43 41 40 40 38 35 34 34 48 58 56 69 43 20 24 25 25 28 31 33 36 39 48 73 86 95 96 98 96 94 99 92 85 82 85 98 87 84 94 99 97 99 99
46 43 51 43 43 43 46 37 38 32 38 55 63 34 21 22 24 26 30 32 34 36 40 51 82 88 97 95 98 98 98 96 82 81 84 93 99 88 98 97 99 100 100 99
57 46 42 40 44 42 47 43 44 43 56 46 39 32 24 23 28 29 32 31 33 38 42 52 89 93 98 99 100 95 98 92 97 99 96 100 96 90 99 100 98 96 96 99
55 61 52 47 45 45 50 45 42 49 50 55 41 37 30 28 31 30 28 32 36 40 44 58 97 98 99 98 99 98 98 98 100 92 99 100 95 99 98 100 100 100 100 100
64 68 64 78 57 52 58 49 46 46 43 42 39 40 28 30 28 30 32 38 42 43 47 61 99 99 99 98 100 99 99 99 100 100 100 100 96 99 100 99 100 100 100 100
64 72 80 72 49 56 61 46 46 43 39 39 46 33 31 33 32 35 39 44 46 50 51 78 99 99 99 99 100 99 99 99 100 99 100 100 100 100 100 100 99 100 100 99
87 68 84 75 63 74 35 29 32 36 32 30 32 31 34 36 35 38 41 45 51 50 54 97 100 99 99 99 100 99 99 100 100 100 100 100 100 99 100 100 100 100 100 100
56 72 91 86 66 43 37 30 32 34 33 30 29 34 29 34 34 33 37 45 52 55 81 99 99 100 99 100 99 99 99 99 99 99 99 100 100 100 100 100 100 100 100 100
47 49 72 70 75 59 35 39 34 34 45 32 30 31 33 38 36 29 41 42 48 57 92 98 97 100 99 99 100 98 99 99 99 98 100 100 100 100 100 100 100 100 100 98
74 65 74 66 66 43 25 24 30 52 52 40 34 33 34 38 37 42 43 41 43 56 91 96 98 100 99 99 100 99 100 99 99 100 100 100 100 100 100 100 100 100 99 100
45 55 57 60 64 72 27 39 37 40 37 36 34 31 29 41 39 34 38 38 45 55 82 96 98 100 99 100 99 99 98 100 98 99 100 100 100 99 100 100 100 100 100 100
40 33 34 34 36 39 46 40 37 36 32 30 29 32 43 40 33 32 36 41 50 56 80 98 98 100 100 100 98 99 99 99 99 100 99 100 99 100 100 100 100 100 100 99
29 28 46 36 26 25 26 30 30 28 27 26 31 28 24 24 35 36 42 49 58 58 81 97 99 100 100 100 99 99 98 98 99 100 100 100 100 100 100 100 100 98 70 53
32 24 29 31 27 28 27 24 22 23 22 18 19 21 26 34 38 36 47 54 61 59 76 97 97 99 99 100 99 100 99 98 99 99 100 100 100 99 90 80 65 53 42 27
33 35 36 35 22 20 19 17 16 17 18 18 20 22 26 33 37 43 50 58 63 60 71 94 97 99 99 100 99 100 100 98 99 99 100 100 99 91 65 47 42 45 52 46
Wind_Speed
3 4 8 12 9 4 3 4 5 2 2 5 5 15 13 10 4 6 7 6 3 2 4 5 4 5 7 9 14 17 24 29 32 31 29 29 25 22 24 28 25 28 27 24
4 9 6 7 6 5 4 4 6 2 1 4 8 18 13 3 4 4 6 4 1 1 3 5 6 7 10 14 16 24 29 31 30 29 27 27 29 28 25 24 30 27 29 30
11 4 6 7 7 7 6 7 2 2 5 3 9 10 6 4 5 4 3 2 0 2 5 7 9 13 16 16 24 28 33 29 28 26 26 26 25 24 25 25 25 32 31 33
8 6 8 6 7 7 5 3 2 2 4 2 3 4 8 8 7 6 9 5 4 5 6 9 14 19 21 23 29 31 30 29 27 24 22 21 22 22 22 21 24 25 30 30
2 7 9 8 4 8 2 4 2 2 0 2 6 3 5 8 10 8 8 6 8 9 14 17 17 20 21 25 28 30 26 24 25 22 22 23 22 23 22 23 24 25 29 29
3 2 4 2 4 1 10 5 4 3 3 3 5 4 4 9 10 8 5 2 9 19 18 18 19 20 22 25 27 28 25 23 20 20 20 21 22 25 26 24 25 27 29 31
4 5 2 5 6 4 6 4 2 3 2 1 5 4 8 8 6 5 5 10 18 21 20 20 22 22 22 23 25 23 22 21 19 20 20 21 23 24 26 27 28 28 29 32
6 4 9 8 5 3 11 3 3 4 3 1 4 6 3 12 8 9 6 17 19 21 21 22 23 23 21 24 23 22 20 20 21 20 22 22 23 23 28 29 29 32 33 33
3 2 2 2 1 3 5 5 2 2 1 2 5 4 6 8 7 8 15 19 19 21 23 23 22 22 22 25 24 21 18 21 22 23 22 22 22 24 28 31 31 28 33 34
2 1 2 3 2 2 3 4 2 3 2 5 5 9 4 12 6 8 19 21 22 25 25 23 23 23 26 28 25 21 19 21 23 21 20 21 21 24 27 26 27 24 32 31
3 3 5 3 8 7 3 4 2 2 2 3 5 3 4 7 3 14 19 23 24 24 24 24 24 26 27 27 22 18 19 23 23 23 24 23 24 25 25 25 24 23 28 34
2 3 4 7 3 4 7 8 10 4 4 4 4 5 9 4 3 19 23 24 25 22 23 24 23 25 28 23 24 19 20 24 27 26 24 23 24 26 29 21 18 24 25 33
3 3 3 3 4 3 5 8 8 9 7 12 7 2 5 6 14 22 23 22 23 23 24 25 24 25 29 24 24 22 25 26 28 27 21 17 18 21 11 11 16 17 29 25
3 4 8 8 3 5 4 7 9 13 7 11 14 18 16 16 19 19 21 22 24 23 24 24 24 24 29 25 25 24 29 29 23 22 13 13 13 13 10 10 12 11 22 25
3 6 10 12 13 10 12 12 11 15 17 15 17 22 22 19 14 12 19 19 23 25 25 24 25 28 28 24 24 23 29 24 19 13 6 8 9 8 7 4 11 18 25 26
2 7 5 6 13 15 17 17 19 22 23 24 23 25 20 5 8 12 18 17 24 25 24 24 25 27 26 23 22 26 27 21 14 4 5 5 2 5 6 3 5 12 18 19
3 3 3 10 7 8 12 18 22 22 21 18 18 15 7 4 10 15 16 18 25 24 23 22 26 25 20 20 19 24 24 17 9 3 7 2 1 1 3 8 8 10 13 20
4 7 3 4 3 10 4 2 7 9 10 11 12 9 7 7 15 13 4 19 23 22 20 21 24 21 19 16 21 18 19 16 7 2 2 1 2 2 5 7 10 16 20 20
16 8 3 4 9 15 18 9 7 9 10 3 11 5 3 8 13 10 16 19 22 20 17 20 20 16 15 16 16 18 17 12 6 4 5 1 2 5 8 8 14 18 21 23
10 14 9 5 5 7 6 6 7 3 5 12 10 6 8 9 6 8 22 22 24 18 15 18 18 12 12 14 14 14 12 10 6 4 3 0 4 6 9 10 16 19 19 23
4 7 15 13 11 8 9 6 6 4 5 5 6 10 11 8 11 21 22 23 22 18 17 16 15 9 11 12 11 12 11 9 9 6 2 3 5 8 10 14 17 20 23 24
10 7 8 9 14 15 9 4 6 5 2 5 9 12 14 12 15 18 21 26 24 20 15 14 12 6 9 9 8 9 9 11 11 6 4 5 7 10 14 17 21 19 21 24
14 13 11 9 4 8 4 3 3 6 11 12 15 14 10 14 21 23 24 24 21 18 14 12 9 6 7 6 6 6 5 5 7 7 7 9 13 15 16 15 20 22 24 28
18 20 10 13 14 20 23 16 17 16 19 20 12 16 21 22 20 23 25 24 21 17 13 11 8 6 4 3 3 2 5 4 4 6 10 14 16 18 16 16 20 25 24 25
16 20 19 21 20 27 28 27 31 30 21 19 24 24 20 20 21 23 25 22 22 16 13 11 8 6 5 2 1 2 3 4 7 9 12 15 19 24 26 24 21 19 20 20
21 21 15 17 24 28 31 29 28 32 32 31 27 26 23 22 26 22 23 22 21 15 14 13 9 9 8 6 3 4 5 6 10 14 15 17 22 24 23 21 24 22 19 15
Wind_Direction
222 218 211 211 218 284 292 267 255 177 50 302 273 294 300 311 231 208 196 181 178 154 181 196 218 257 281 300 305 312 315 310 305 300 295 286 278 272 274 269 261 249 253 251
225 246 214 114 151 181 205 238 248 142 150 301 309 296 301 182 150 173 169 156 131 233 242 252 254 273 288 294 304 298 307 309 301 296 292 285 280 266 252 265 265 256 248 248
237 28 143 176 165 180 214 245 269 297 312 228 299 267 162 153 160 159 178 200 66 340 301 287 286 293 291 293 297 302 305 302 297 295 293 290 286 278 263 247 253 257 252 248
241 133 193 204 197 198 214 134 130 306 339 294 5 288 199 159 141 145 135 129 50 20 346 315 300 301 293 293 300 302 299 296 293 292 287 283 279 268 263 263 253 254 255 241
180 183 195 206 228 193 103 131 93 35 60 340 181 215 131 163 165 144 131 90 47 357 326 315 310 306 300 296 298 296 296 292 293 290 285 282 274 268 267 262 256 250 252 245
4 338 227 302 125 226 137 143 125 136 152 233 170 229 232 169 192 139 126 66 358 337 322 314 313 310 305 301 301 299 294 288 289 294 291 286 285 272 265 258 254 249 246 242
179 183 160 205 153 173 211 198 211 217 200 295 145 225 258 113 84 86 46 358 332 328 324 320 317 313 308 311 310 303 299 291 291 291 289 288 288 280 271 269 269 249 244 238
187 213 188 180 251 230 199 262 261 250 229 69 163 239 95 100 98 79 22 341 336 334 328 321 318 316 310 313 312 307 296 296 296 294 286 289 285 282 280 277 266 254 237 235
204 173 127 184 284 321 161 213 30 300 117 255 227 235 203 199 146 47 357 348 339 335 332 326 324 321 316 319 315 312 301 301 299 293 289 290 284 287 284 277 270 254 227 233
51 189 214 134 191 109 287 114 159 187 264 252 232 233 235 158 168 348 351 347 338 336 335 330 328 329 324 319 312 309 306 304 304 302 302 293 288 285 282 278 269 242 223 224
307 264 137 177 210 199 167 201 218 344 235 271 298 294 119 151 95 346 341 338 336 335 333 329 329 328 324 322 320 309 304 308 310 299 299 294 292 294 288 277 265 224 228 215
47 320 208 209 71 332 280 249 210 230 173 229 285 267 167 149 253 350 337 329 331 332 329 328 329 329 331 334 337 325 318 312 311 308 300 293 291 300 290 272 248 229 219 206
7 216 233 213 193 178 239 226 246 263 275 247 242 261 140 190 328 340 326 325 329 329 328 332 331 332 340 333 332 329 328 326 315 302 290 284 292 320 310 261 244 237 221 211
303 246 258 264 12 336 224 246 234 231 239 249 241 264 273 303 329 330 320 323 323 325 329 329 332 333 339 339 331 334 335 327 321 312 284 283 301 324 327 290 273 222 228 221
275 252 247 260 278 264 264 264 247 239 245 259 276 284 289 306 327 323 315 329 327 323 327 330 331 333 338 336 336 337 336 334 330 316 270 268 311 327 328 313 222 193 186 189
234 255 276 260 261 259 260 260 261 260 263 267 275 279 290 325 323 327 327 333 331 325 324 328 332 337 341 333 337 341 343 343 348 327 263 248 286 9 354 56 201 205 189 191
260 241 218 264 279 299 270 244 250 258 259 265 265 284 37 343 328 333 329 335 330 323 323 326 335 336 337 334 343 347 350 353 353 297 255 219 320 327 105 110 136 168 162 162
265 253 261 270 256 254 256 331 274 273 275 266 277 253 288 330 310 312 337 340 335 331 325 323 335 334 338 343 343 346 355 4 7 331 141 73 137 147 148 136 133 147 141 138
223 240 255 239 232 279 295 309 255 226 260 271 239 84 343 328 307 136 8 350 337 327 323 323 334 333 344 343 350 356 358 9 22 75 349 266 154 135 153 138 138 139 142 138
233 227 238 225 249 262 86 99 50 350 227 86 73 41 13 345 336 324 337 337 340 328 318 328 336 335 343 346 353 359 6 13 19 11 343 264 158 164 156 149 151 148 150 148
182 212 225 230 245 265 259 269 296 251 104 96 17 20 354 328 319 309 319 330 333 327 318 327 332 337 351 350 352 4 16 29 35 28 58 139 150 158 151 142 143 151 150 147
226 225 211 230 245 253 194 124 222 60 30 354 340 338 327 313 318 322 318 325 331 328 311 319 324 317 341 355 357 11 35 43 42 49 95 128 143 147 146 147 144 150 149 146
251 258 268 242 227 90 31 58 40 320 313 311 318 324 330 320 319 321 322 324 322 320 302 308 311 302 328 351 359 18 34 29 26 51 104 124 135 141 148 153 148 145 140 134
265 272 264 274 264 274 277 299 298 293 290 299 305 312 312 311 309 317 321 319 319 316 293 294 292 280 306 309 350 57 46 63 87 99 125 136 140 138 135 136 135 127 127 136
278 286 270 270 271 283 284 282 286 291 295 306 305 303 306 305 308 314 311 311 315 307 287 275 273 251 253 287 328 167 109 108 139 137 137 140 140 130 128 130 132 129 136 139
255 255 256 262 262 261 263 269 278 288 294 300 295 298 296 295 298 299 299 303 307 298 282 261 259 241 237 242 227 185 172 144 156 149 151 146 147 142 140 139 141 143 145 146